Location: Crescent
(42.8242°N, 73.7329°W)
Time: 05:13:37
(UTC+00:00)

Transit 4A - Pass Details

Date: 21 February 2026
Orbit: 864 x 977 km, 66.8° (Epoch: 5 March)

Event Time Altitude Azimuth Distance (km) Brightness Sun altitude
Rises 06:00:48 0° 150° (SSE) 3,444 - -55.8°
Reaches altitude 10° 06:05:15 10° 118° (ESE) 2,532 - -55.4°
Maximum altitude 06:07:00 11° 100° (E) 2,445 - -55.3°
Drops below altitude 10° 06:08:46 10° 83° (E) 2,556 - -55.2°
Exits shadow 06:12:50 - 54° (NE) 3,403 11.3 -54.8°
Sets 06:13:17 0° 51° (NE) 3,532 11.4 -54.8°
